Simultaneous Nadir Overpasses (SNOs) Predictions

Prediction of SNOs between AQUA and NPP Satellite Orbit:

Table of predicted SNOs for the next 14.0 days since TLE Epoch: 7/20/2024
Index Date (AQUA) Time (AQUA) Lat,Lon (AQUA) SZA (AQUA ) Date (NPP) Time (NPP) Lat,Lon (NPP) SZA (NPP ) Distance(km) Time Diff (sec)
1 07/21/2024 07:35:57 81.27, -9.23 67.90 07/21/2024 07:35:10 81.27, -9.20 67.93 0.51 47
2 07/21/2024 08:25:19 -81.27, 158.54 112.11 07/21/2024 08:25:54 -81.27, 158.43 112.12 2.03 35
3 07/23/2024 19:39:19 -81.26, -10.27 111.57 07/23/2024 19:38:23 -81.26, -10.09 111.56 3.05 56
4 07/23/2024 20:28:39 81.27, 157.77 68.39 07/23/2024 20:29:07 81.27, 157.64 68.39 2.13 28
5 07/26/2024 07:42:37 81.26, -10.92 68.95 07/26/2024 07:41:36 81.26, -10.99 69.00 1.06 61
6 07/26/2024 08:31:59 -81.27, 156.88 111.07 07/26/2024 08:32:20 -81.27, 156.70 111.05 3.15 21
7 07/28/2024 19:45:55 -81.27, -11.63 110.50 07/28/2024 19:44:48 -81.27, -11.59 110.47 0.73 67
8 07/28/2024 20:35:15 81.28, 156.34 69.47 07/28/2024 20:35:31 81.28, 156.48 69.43 2.36 16
9 07/31/2024 07:49:09 81.26, -12.43 70.10 07/31/2024 07:47:59 81.27, -12.30 70.12 2.09 70
10 07/31/2024 08:38:31 -81.27, 155.40 109.92 07/31/2024 08:38:43 -81.27, 155.43 109.94 0.60 12
11 08/02/2024 19:52:24 -81.26, -13.20 109.29 08/02/2024 19:51:12 -81.26, -13.40 109.22 3.27 72



Historial Predications of SNOs between AQUA and NPP
